RH
15 18 17 63 100 100 100 100 99 100 95 83 88 86 77 100 80 67 79 96 95 96 100 92 79 78 57 92 100 100 95 88 78 75 81 96 99 98 95 100 96 92 78
19 23 35 87 100 100 100 81 65 83 97 92 84 78 69 93 100 80 80 100 100 98 100 100 87 81 73 64 90 100 100 96 99 99 97 89 91 100 98 100 90 85 67
38 28 44 81 96 100 99 66 94 95 99 94 94 100 94 66 92 99 69 97 99 100 100 100 100 97 85 71 66 82 95 98 100 100 99 97 92 90 92 95 87 77 70
52 46 40 69 71 72 66 79 84 81 67 82 94 100 100 92 74 76 78 67 100 90 96 100 100 100 96 77 69 74 76 84 86 95 100 100 100 100 96 75 77 67 72
96 80 66 57 75 62 85 86 86 98 64 71 76 88 78 87 73 67 75 68 99 100 72 72 100 100 100 82 57 67 71 76 87 84 87 84 93 93 95 83 83 90 76
100 67 72 81 78 86 72 54 84 100 100 84 80 89 93 100 72 64 61 72 81 100 84 70 89 79 100 100 100 72 71 75 70 73 72 100 100 91 92 98 92 93 95
16 44 97 100 92 57 49 53 31 81 96 76 70 80 89 94 100 80 48 47 72 79 100 89 56 70 91 90 100 100 100 99 92 66 55 49 83 94 100 100 100 100 100
12 12 17 18 18 20 38 46 39 39 48 79 66 84 91 83 86 100 67 52 54 76 77 92 78 71 65 74 99 100 100 100 99 78 52 53 58 56 47 68 91 100 100
18 14 12 12 14 17 22 55 74 62 45 51 76 72 75 83 84 85 100 89 67 56 78 82 88 84 90 83 62 96 100 78 100 100 100 60 45 54 51 46 55 64 88
20 19 17 12 11 12 15 16 19 37 89 82 56 64 58 60 69 95 99 98 88 83 70 75 74 73 98 95 85 66 74 83 65 100 100 100 100 62 43 43 44 51 57
27 21 21 20 15 13 11 11 12 14 17 48 73 73 66 62 77 67 88 100 100 78 66 57 75 72 78 95 100 93 91 78 86 79 89 99 100 100 96 68 44 43 46
25 27 28 22 25 22 17 13 11 10 13 16 21 59 100 93 87 99 91 84 100 92 88 70 58 63 58 58 85 95 92 95 88 76 68 65 86 100 100 100 97 81 48
29 28 28 30 25 25 29 22 15 13 12 14 32 57 78 96 97 92 92 98 93 91 87 81 86 75 95 57 54 62 81 80 100 98 78 75 63 69 100 100 100 100 100
36 33 33 30 28 28 26 26 28 23 16 13 14 52 98 100 95 85 88 100 100 100 100 98 86 89 94 100 76 60 57 64 63 80 100 97 86 72 68 100 100 100 100
50 40 36 35 34 32 30 31 28 26 28 25 18 14 18 85 100 100 100 88 86 90 98 100 100 99 91 84 94 76 71 57 49 48 59 89 96 88 63 66 100 100 100
56 53 41 38 40 38 34 34 33 31 30 27 28 28 18 15 27 100 100 100 98 91 81 69 81 98 100 96 79 100 96 87 71 61 56 51 62 92 89 65 76 99 100
59 59 58 52 46 44 45 42 41 38 35 32 30 31 29 30 22 17 27 57 100 100 100 100 80 64 66 88 100 91 92 100 100 100 82 70 69 69 87 94 70 60 81
69 62 64 62 57 55 52 48 43 44 42 41 38 33 33 33 32 33 28 19 16 17 40 88 100 100 93 90 79 74 84 88 97 100 100 100 99 99 93 100 92 64 57
89 85 86 81 81 73 65 61 53 49 48 49 47 44 40 35 35 37 35 37 40 30 20 16 19 48 90 100 100 100 100 80 73 94 99 100 100 100 100 95 95 91 77
81 80 76 78 80 77 73 70 69 65 58 52 49 49 46 42 40 37 36 38 37 41 49 45 25 21 18 19 39 82 100 100 100 90 70 92 100 100 100 100 100 100 92
82 79 83 81 78 75 77 80 76 68 63 59 58 54 51 49 43 40 39 37 37 40 39 44 50 53 42 32 24 18 20 82 100 100 100 100 74 71 87 100 100 100 100
92 88 85 81 76 72 71 73 74 72 73 73 71 65 61 60 59 53 46 44 47 47 48 44 41 42 50 59 52 44 28 20 19 62 98 100 100 100 100 95 80 91 96
91 93 93 93 90 86 86 84 83 82 82 82 81 80 75 73 73 67 66 64 55 52 50 49 50 49 46 47 56 64 59 53 32 22 20 36 93 100 100 100 100 92 85
100 100 100 100 100 100 100 96 91 89 88 84 84 82 83 79 70 64 62 58 59 56 57 60 55 49 50 48 44 47 56 61 66 59 37 28 21 25 59 100 100 100 100
92 87 84 75 63 55 53 57 56 53 50 46 45 40 39 38 44 44 45 55 52 45 45 50 54 56 55 52 54 50 47 53 57 70 83 63 38 37 26 21 55 100 100
64 64 62 55 54 53 53 50 50 49 49 47 45 43 43 44 42 38 36 33 33 31 33 42 48 49 52 55 56 54 50 45 49 52 65 84 90 56 42 45 33 27 62
Wind_Speed
19 19 20 32 26 24 23 24 33 34 32 30 27 27 26 22 22 21 22 21 23 19 19 18 17 16 20 23 21 21 19 20 19 20 20 21 21 23 24 23 23 19 19
20 17 27 41 35 28 29 26 31 31 29 27 28 30 31 26 25 26 27 24 21 18 18 18 18 18 18 24 25 23 23 21 21 22 22 22 20 20 19 19 19 19 17
20 19 25 46 42 40 29 36 29 24 20 24 21 26 32 34 30 33 32 32 26 26 19 14 19 20 19 19 26 26 24 23 24 24 25 25 25 25 24 23 22 19 17
22 23 21 35 52 51 45 28 26 29 28 29 14 19 24 30 36 33 33 36 32 27 23 17 18 20 23 22 21 26 28 26 24 25 25 23 25 27 28 24 20 16 18
27 28 30 31 37 41 52 51 38 29 28 26 29 24 26 28 31 36 35 37 34 33 28 27 20 21 24 24 23 22 24 27 29 28 27 28 29 27 26 26 26 25 19
38 38 37 38 40 42 42 43 53 52 45 43 34 28 31 32 30 35 40 36 39 36 34 33 28 29 24 25 27 26 23 24 26 27 30 29 28 29 29 29 30 28 29
23 37 46 45 48 46 46 47 44 56 56 51 48 50 39 35 37 37 39 41 42 41 37 35 36 33 29 28 21 24 26 28 27 26 27 28 33 32 30 30 31 30 30
18 23 31 38 41 42 43 42 39 44 52 55 53 49 45 44 40 40 43 42 43 45 45 40 39 38 43 37 34 29 26 27 32 29 28 29 30 31 33 36 32 30 31
18 16 23 28 32 38 40 45 49 46 44 45 49 54 52 49 50 47 47 46 43 46 47 48 44 44 41 41 44 35 33 35 29 33 30 32 32 32 32 32 35 35 36
26 25 22 21 29 31 34 40 42 43 54 55 51 53 56 55 50 51 52 49 50 50 47 48 46 46 46 44 44 46 42 38 39 33 32 33 36 37 36 35 34 35 35
28 29 29 27 26 25 32 35 36 41 43 52 56 60 61 62 60 57 54 56 55 52 53 52 52 50 47 47 47 45 46 45 44 42 38 35 34 37 41 38 38 37 37
29 28 30 30 31 30 30 31 34 36 39 41 51 60 63 63 61 58 58 57 61 60 57 54 56 56 57 56 52 51 49 48 51 49 45 44 37 32 37 43 44 42 40
32 30 29 30 33 34 34 33 35 36 36 37 40 53 57 59 66 65 63 62 61 62 63 63 59 59 56 59 59 56 54 54 51 54 53 50 48 43 37 39 42 40 40
37 36 33 32 32 34 37 38 38 38 39 38 39 46 53 56 58 61 63 66 63 67 64 62 63 66 63 60 61 63 61 60 58 56 55 56 54 51 44 39 47 45 40
43 40 41 39 37 37 37 39 42 42 43 43 43 45 49 57 61 61 63 62 65 66 66 62 60 64 64 66 64 65 65 66 65 63 61 59 59 58 59 54 50 50 48
51 47 46 47 45 45 44 43 43 43 45 48 49 50 50 52 57 66 68 66 67 67 69 70 70 68 65 66 69 68 69 69 69 68 68 66 64 63 62 60 59 54 55
57 55 54 54 53 51 51 50 51 51 50 49 50 53 56 56 57 59 64 70 76 75 72 73 72 74 72 73 70 71 72 74 72 72 73 72 70 69 66 69 69 64 62
64 63 62 60 60 59 58 57 58 58 58 58 57 57 57 59 62 63 63 65 68 71 76 82 81 78 79 79 80 79 78 74 76 76 75 74 74 73 73 73 74 71 70
68 70 69 69 68 67 66 65 65 65 66 67 66 66 65 65 66 67 69 69 69 69 72 75 76 82 85 84 85 82 83 83 82 81 81 78 76 75 77 79 79 79 75
72 73 74 74 74 73 73 75 77 78 77 77 77 76 76 76 75 74 74 74 76 76 74 73 76 78 78 79 83 87 92 88 86 86 86 86 84 81 82 79 77 81 83
78 78 79 80 82 83 84 85 86 88 88 89 88 87 87 86 84 83 83 83 83 83 84 84 81 79 78 79 82 84 86 90 96 94 90 90 93 93 90 88 86 82 81
88 89 90 91 93 94 95 95 96 96 97 96 96 96 95 93 94 93 91 91 90 90 90 90 91 90 87 85 84 84 87 89 90 93 98 98 96 95 94 95 95 93 90
96 97 98 99 99 100 101 101 101 101 101 100 100 100 100 100 100 100 100 99 98 98 97 97 97 95 95 94 93 92 90 91 92 93 94 96 101 102 99 99 99 98 96
100 101 102 102 102 103 103 104 103 103 102 101 102 104 105 106 106 106 106 106 105 104 104 104 104 103 103 102 100 101 99 98 98 96 98 97 98 102 103 107 106 98 98
95 96 96 97 97 98 98 99 99 99 100 98 99 100 101 103 105 104 105 106 108 110 109 110 111 111 111 110 109 108 108 108 106 104 103 106 103 102 102 105 106 109 110
95 97 99 101 101 102 102 102 101 100 101 102 103 105 105 105 107 108 108 109 109 109 111 115 117 118 117 117 116 115 115 115 115 113 111 111 113 112 109 107 108 110 111
Wind_Direction
246 233 188 178 159 171 189 201 237 229 245 243 243 245 231 234 228 222 220 228 226 231 253 250 245 229 227 214 217 219 217 216 218 224 226 236 246 251 255 260 264 272 271
252 240 184 181 180 187 205 216 229 239 247 249 250 253 245 231 230 225 221 215 228 228 243 255 246 243 237 228 221 224 222 222 221 228 230 231 238 247 252 257 263 266 263
250 240 202 188 191 196 199 212 221 229 235 242 244 247 247 242 241 227 221 219 228 228 217 249 256 246 241 239 229 230 233 232 233 234 235 235 240 246 251 258 260 256 250
243 250 227 209 207 209 206 212 223 234 235 240 235 233 242 242 240 233 230 225 229 226 211 220 247 258 247 242 241 238 238 241 240 239 243 246 248 249 252 249 250 250 241
247 243 245 238 222 227 228 229 235 234 241 247 245 244 237 239 241 233 232 228 227 222 218 221 235 244 252 245 245 245 242 241 246 246 247 252 255 257 254 251 250 251 240
241 254 248 246 246 237 232 240 244 240 243 248 247 251 246 242 243 238 237 234 229 223 225 231 217 230 244 251 250 244 243 239 241 247 248 249 256 255 255 255 253 255 253
255 251 250 251 259 259 256 259 243 241 244 246 252 254 250 245 246 244 243 239 235 232 232 234 244 243 237 242 244 249 248 247 242 243 246 249 247 249 248 249 252 251 252
276 259 253 256 259 261 259 258 256 246 245 249 251 251 249 251 250 251 242 239 242 237 237 241 247 246 242 236 244 247 247 256 251 249 248 249 250 252 253 254 255 250 248
281 281 267 259 262 260 261 264 264 260 256 252 249 251 253 255 257 256 250 248 244 242 241 241 243 242 240 242 242 243 251 246 250 257 259 254 255 254 253 253 254 253 253
282 280 271 268 259 261 261 259 258 259 258 256 255 255 254 257 258 254 251 247 247 246 245 245 242 241 245 244 245 248 248 247 241 240 253 262 260 257 257 257 256 255 255
283 278 278 277 272 270 263 258 260 259 255 254 253 253 253 254 259 259 251 249 251 251 248 241 240 242 246 249 250 248 251 251 244 243 238 244 256 263 258 257 258 258 259
292 288 280 274 274 276 279 277 268 263 257 259 252 252 251 255 255 257 258 256 251 254 251 251 249 245 248 251 251 252 250 251 250 246 246 242 244 253 263 261 259 258 258
285 284 287 283 276 272 274 275 277 274 270 264 260 250 252 253 253 255 256 256 257 257 256 255 250 251 248 252 251 253 253 253 250 252 249 251 248 243 252 263 259 260 259
278 280 280 283 284 281 275 272 271 273 275 268 264 254 253 255 256 254 253 253 252 256 257 257 253 248 248 250 251 254 253 253 254 252 252 250 251 250 245 259 256 256 258
270 275 275 278 277 279 280 279 274 271 270 271 270 263 257 253 253 254 255 255 253 251 252 249 251 252 252 250 250 252 255 256 253 254 253 253 250 249 249 251 249 249 250
268 268 271 273 274 276 278 278 279 278 274 269 269 269 265 260 257 253 252 255 255 255 255 254 250 249 250 251 251 250 252 253 256 256 255 254 255 254 251 253 246 247 250
266 265 267 268 269 271 271 272 273 274 276 276 273 268 266 266 265 260 257 257 253 251 253 256 258 257 252 250 250 252 250 249 252 253 256 256 254 253 254 254 255 250 249
267 265 267 267 270 270 268 269 271 269 269 270 270 272 271 267 264 264 264 262 260 259 258 256 254 254 255 256 256 254 252 252 249 249 251 252 253 253 253 253 253 250 254
270 267 269 271 273 271 270 269 271 271 270 269 269 269 268 268 267 265 262 262 263 263 262 259 258 256 255 253 254 254 254 256 253 250 249 249 251 253 254 254 252 251 254
270 270 270 271 272 272 272 273 274 273 273 272 271 270 270 270 267 264 263 262 260 258 259 260 259 259 257 256 255 254 251 251 252 253 252 250 249 251 251 252 254 253 250
272 272 272 272 272 272 272 272 272 273 274 274 273 272 271 269 268 267 264 263 262 259 258 256 256 257 256 258 259 256 255 252 248 248 248 251 254 253 251 252 251 251 253
274 274 274 274 274 275 275 275 275 275 274 274 273 272 271 269 267 265 263 261 260 259 258 256 256 255 254 255 256 257 257 254 253 251 247 245 247 249 251 252 251 251 253
274 274 274 274 274 274 274 275 274 274 274 273 272 272 270 268 267 266 265 263 262 260 257 256 256 255 254 252 253 254 255 256 255 253 252 250 247 247 247 249 251 250 251
272 273 273 274 274 273 272 272 272 273 271 272 272 271 269 268 268 267 266 265 264 262 260 258 256 255 254 254 252 251 251 252 254 255 254 252 252 250 249 247 245 246 247
274 275 275 275 276 276 276 275 274 273 272 272 270 271 270 270 268 267 267 266 267 263 261 260 259 257 255 254 253 252 250 250 249 250 252 255 250 250 251 251 249 247 244
278 277 277 277 277 277 276 275 275 273 272 271 270 270 270 271 271 269 268 268 267 265 263 262 260 259 257 256 255 253 252 249 248 247 248 250 255 252 248 248 249 250 249